Regional Weather Roundup
Issued by NWS

Home | Current Version | Previous Version | Text Only | Print | Product List | Glossary On
Versions: 1 2 3 4 5 6 7 8 9 10 11 12 13 14 15 16 17 18 19 20 21 22 23 24 25 26 27
000
ASUS42 KTBW 231217
RWRFL
FLORIDA REGIONAL WEATHER ROUNDUP
NATIONAL WEATHER SERVICE TAMPA BAY RUSKIN FL
700 AM EST THU NOV 23 2017

NOTE: "FAIR" INDICATES FEW OR NO CLOUDS BELOW 12,000 FEET WITH NO
SIGNIFICANT WEATHER AND/OR OBSTRUCTIONS TO VISIBILITY.

FLZ001>010-012>015-112-114-115-231300-
PANHANDLE FLORIDA

CITY           SKY/WX    TMP DP  RH WIND       PRES   REMARKS
PENSACOLA      CLEAR     45  34  65 N9        30.02S WCI  40
PENSACOLA NAS  PTCLDY    45  34  65 N10       30.02R WCI  40
CRESTVIEW      CLOUDY    49  36  61 N5        30.02F
DUKE FIELD     CLOUDY    49  37  62 N8        30.00S
VALPARAISO     MOCLDY    51  37  57 NE9       29.98S
MARY ESTHER    CLOUDY    50  38  64 N14       29.98F WCI  45
PANAMA CITY    CLOUDY    53  41  63 N9        29.97S
TYNDALL AFB    DRIZZLE   56  46  68 N8        29.96S
APALACHICOLA   CLOUDY    57  57 100 NE10      29.94R

STATION/POSITION SKY/WX   TEMP    WIND        PRES    WAVE   SWELL
                          AIR SEA DIR/SP/G            HT/PER HT/PER
                          (F)     (DEG/KT/KT) (MB)    (FT/S) (FT/S)
29.2N   88.2W              62 77   20/ 16/ 21 1016.0
28.8N   86.0W              69 76   30/ 17/ 21 1011.9S   5/ 6
PANAMA CITY BEAC           53 69   20/ 10/ 13 1015.2F
TOWER C                    64      50/ 18/ 20 1013.4R
28.5N   84.5W              68 75   30/ 23/ 27   N/A     6/ 6

$$
FLZ011-016>038-118-127-128-134-139-239-231300-
NORTH FLORIDA

CITY           SKY/WX    TMP DP  RH WIND       PRES   REMARKS
MARIANNA       CLOUDY    56  39  53 N7        29.99R
TALLAHASSEE    CLOUDY    57  57 100 N8        29.97R FOG
PERRY          RAIN      62  61  97 E6        29.95S
LIVE OAK       CLOUDY    61  61 100 NE7       29.97S FOG
CROSS CITY     RAIN      60  60  99 NE12      29.97R
LAKE CITY      HVY RAIN  59  59 100 NE5       29.96R
GAINESVILLE    HVY RAIN  61  60  97 NE12      29.95S
WILLISTON      FOG       64  64 100 N8        29.91F VSB 3/4
PALATKA        HVY RAIN  64  64 100 N8        29.93S
MAYPORT NAS    HVY RAIN  65  32  29 N13G24    29.95S
JACKSONVILLE   LGT RAIN  64  62  93 N6        29.97R FOG
JAX NAS        HVY RAIN  65  64  97 N10       29.97R FOG
JAX CECIL      RAIN      63  63 100 N12       29.96R
ST AUGUSTINE   LGT RAIN  64  63  94 N14       29.95R FOG
PALM COAST     RAIN      66  64  94 E7        29.91R

STATION/POSITION SKY/WX   TEMP    WIND        PRES    WAVE   SWELL
                          AIR SEA DIR/SP/G            HT/PER HT/PER
                          (F)     (DEG/KT/KT) (MB)    (FT/S) (FT/S)
SHELL POINT      NOT AVBL
KEATON BEACH               60      70/ 10/ 11 1013.6R
CEDAR KEY                  62      30/  9/ 11 1013.0R
FERNANDINA                 64 66   10/  5/ 10 1015.5R
30.7N   81.3W                 67                N/A     5/ 9
MAYPORT                    64 67   20/ 12/ 15 1014.5S
31.4N   80.9W              65 67   40/ 21/ 23 1014.6S   5/ 5   2/ 9
ST AUGUSTINE               67 69  360/ 19/ 20 1013.5R

$$
FLZ040-043>046-052-053-057-058-063-144-231300-
INTERIOR CENTRAL FLORIDA

CITY           SKY/WX    TMP DP  RH WIND       PRES   REMARKS
OCALA          LGT RAIN  66  64  94 N8        29.89F FOG
THE VILLAGES     N/A     68  68 100 CALM      29.78R FOG
LEESBURG       LGT RAIN  70  68  93 SE9       29.88S
SANFORD        CLOUDY    69  66  90 E12       29.89S
ORLANDO EXEC   CLOUDY    69  68  96 E9        29.88F
ORLANDO INTL   CLOUDY    69  68  96 E9        29.89S
KISSIMMEE      CLOUDY    69  67  93 SE5       29.91R
WINTER HAVEN   CLOUDY    68  67  96 SE6       29.91R
LAKELAND       CLOUDY    68  68 100 SE6       29.90R
BARTOW         MOCLDY    66 N/A N/A SE3       29.91R
SEBRING        FAIR      69  66  90 CALM      29.90R
OKEECHOBEE     CLOUDY    68  66  94 E3        29.89S

$$
FLZ041-047-054-059-064-141-147-231300-
EAST CENTRAL FLORIDA

CITY           SKY/WX    TMP DP  RH WIND       PRES   REMARKS
ORMOND BEACH   LGT RAIN  68  66  94 N6        29.90
DAYTONA BEACH  RAIN      71  67  87 VRB7      29.89S
DELAND         LGT RAIN  66  64  94 CALM      29.89S
NEW SMYRNA BEA MOCLDY    72  64  78 SE12G18   29.91
JFK SPACE CTR  CLOUDY    71  71  99 SE5       29.88S
TITUSVILLE     MOCLDY    73  72  94 E6        29.90
CAPE CANAVERAL MOCLDY    71  67  88 SE7       29.88S
PATRICK AFB    PTCLDY    73  71  93 E13       29.89S
MELBOURNE      CLOUDY    74  69  85 E9        29.89S
VERO BEACH     MOCLDY    69  68  96 CALM      29.90R
FT PIERCE      MOCLDY    67  67 100 CALM      29.90R
STUART         PTCLDY    73  70  88 S3        29.91R

STATION/POSITION SKY/WX   TEMP    WIND        PRES    WAVE   SWELL
                          AIR SEA DIR/SP/G            HT/PER HT/PER
                          (F)     (DEG/KT/KT) (MB)    (FT/S) (FT/S)
28.5N   80.2W              76 79  100/ 14/ 17 1012.3
TRIDENT PIER                      100/  4/  6   N/A
27.5N   80.2W                 78                N/A     4/ 8

$$
FLZ050-056-061-142-242-148-248-149-249-151-251-155-255-
160-260-231300-
WEST CENTRAL FLORIDA

CITY           SKY/WX    TMP DP  RH WIND       PRES   REMARKS
CRYSTAL RIVER  RAIN      64  64 100 CALM      29.88R
INVERNESS      RAIN      66  66 100 CALM      29.88F VSB 1
BROOKSVILLE    LGT RAIN  67  66  97 SE5       29.88S
CLEARWATER AIR DRIZZLE   68  68 100 SE5       29.87S
ST PETE CLEARW LGT RAIN  69  68  96 SE6       29.87S
TAMPA INTL     CLOUDY    71  67  87 SE8       29.87S
TAMPA EXEC     CLOUDY    68  66  94 SE3       29.88S
PLANT CITY     CLOUDY    70  68  94 SE5       29.91R
MACDILL AFB    MOCLDY    69  69 100 SE6       29.87S
PETER O KNIGHT   N/A    N/A N/A N/A SE3       29.88S
ST PETERSBURG  CLOUDY    70  67  90 SE10      29.85F
SARASOTA       CLOUDY    67  67 100 SE6       29.85S
VENICE         FAIR      70  70 100 SE7       29.87S

STATION/POSITION SKY/WX   TEMP    WIND        PRES    WAVE   SWELL
                          AIR SEA DIR/SP/G            HT/PER HT/PER
                          (F)     (DEG/KT/KT) (MB)    (FT/S) (FT/S)
27.3N   84.2W                 77                N/A     5/ 5
CLEARWATER BEACH           69 70  110/  5/  8 1011.2F
MIDDLE TAMPA BAY           68     130/  9/ 10 1011.6R
VENICE                     69 72  120/  7/  9 1011.2R

$$
FLZ066-069-070-075>078-162-262-165-265-231300-
SOUTHWEST FLORIDA AND KEYS

CITY           SKY/WX    TMP DP  RH WIND       PRES   REMARKS
PUNTA GORDA    LGT RAIN  69  67  93 SE6       29.89S
FT MYERS       PTCLDY    69  68  96 E5        29.87F
SOUTHWEST INTL CLOUDY    69  69 100 SE9       29.88F
NAPLES         CLEAR     70  69  97 E6        29.88R
MARCO ISLAND   CLOUDY    70  68  93 E6        29.89S
IMMOKALEE      CLOUDY    68  66  94 CALM      29.90S FOG
MARATHON       PTCLDY    78  69  73 SE8       29.89R
KEY WEST NAS   CLOUDY    72  72 100 CALM      29.89S
KEY WEST INTL  PTCLDY   N/A N/A N/A CALM      29.90R

STATION/POSITION SKY/WX   TEMP    WIND        PRES    WAVE   SWELL
                          AIR SEA DIR/SP/G            HT/PER HT/PER
                          (F)     (DEG/KT/KT) (MB)    (FT/S) (FT/S)
NAPLES                        76  120/  5/  7 1011.6S
DRY TORTUGAS               78     170/ 12/ 13 1012.0R
SAND KEY                   76                 1013.0R
MOLASSES REEF              78 80  150/ 11/ 12 1012.8R

$$
FLZ067-068-071>074-168-172>174-231300-
SOUTHEAST FLORIDA

CITY           SKY/WX    TMP DP  RH WIND       PRES   REMARKS
W PALM BEACH   MOCLDY    74  68  81 S5        29.91R
BOCA RATON     PTCLDY    75  68  78 S5        29.90
FT LAUDER-EXEC PTCLDY    72  71  97 SE3       29.90R
FT LAUDERDALE  MOCLDY    75  70  84 S8        29.89R
POMPANO BEACH  PTCLDY    77  70  79 SE9       29.90R
PEMBROKE PINES PTCLDY    70  67  90 CALM      29.92R
OPA LOCKA      PTCLDY    69  69 100 CALM      29.90R
MIAMI          PTCLDY    74  70  87 SE7       29.90R
WEST KENDALL   PTCLDY    70  68  93 SE5       29.90R
HOMESTEAD      PTCLDY    69  69 100 SE3       29.90R

STATION/POSITION SKY/WX   TEMP    WIND        PRES    WAVE   SWELL
                          AIR SEA DIR/SP/G            HT/PER HT/PER
                          (F)     (DEG/KT/KT) (MB)    (FT/S) (FT/S)
PORT EVERGLADES            78     140/ 11/ 15 1012.5R
VIRGINIA KEY               78 77  120/  8/ 11 1012.2R
LAKE WORTH                 78 79  150/ 13/ 16 1013.5R
FOWEY ROCKS                78 78  140/ 16/ 17 1013.1R
SETTLEMENT POINT           74     120/  7/  9 1013.2R

$$





USA.gov is the U.S. government's official web portal to all federal, state and local government web resources and services.